EXPRESS-AMU1

Last updated on Tue Oct 08 2024 00:02:40 GMT+0000 (Coordinated Universal Time)

1 41191U 15082A 24281.21577064 .00000166 00000+0 00000+0 0 9992 2 41191 0.0178 154.0125 0002335 58.0791 278.0527 1.00273750 32073
UTC large
Height (km)
Speed (km/s)
/
Latitude / Longitude
Inclination (degrees)
Orbital Period (minutes)
Azimuth
Elevation
Range (km)
Doppler Factor

Next 0 passes for location: London (51.5072 / 0.1276)

Sorry there are no passes over London.